This demonstration page uses our WeatherBlox Daily Observations layout. Learn more.

Left ArrowRight Arrow

Hourly Observations for January 9, 2021

Temp ( °F °C ) Dew Point ( °F °C ) Humidity (%) Winds ( mph kmh ) Pressure ( in mb ) Visibility ( mi km ) Precip ( " mm )
12:20 am 00:20 Cloudy with Haze 67 19.4 45 7.2 45 45 WNW 8 13 30.28 1025 3 4 0.00 0.00
12:30 am 00:30 Cloudy with Haze 66 18.9 45 7.2 47 47 WNW 9 15 30.28 1025 2 3 0.00 0.00
12:53 am 00:53 Cloudy with Haze 64 17.8 45 7.2 50 50 WNW 7 11 30.27 1025 1 1 0.00 0.00
1:53 am 01:53 Mostly Cloudy with Haze 63 17.2 44 6.7 50 50 W 9 15 30.28 1025 0 0 0.00 0.00
2:53 am 02:53 Mostly Cloudy with Haze 60 15.6 44 6.7 56 56 WNW 6 9 30.29 1026 0 0 0.00 0.00
3:53 am 03:53 Mostly Cloudy with Haze 64 17.8 45 7.2 50 50 NNW 7 11 30.27 1025 0 0 0.00 0.00
4:53 am 04:53 Mostly Cloudy with Haze 60 15.6 45 7.2 58 58 NW 5 7 30.27 1025 0 0 0.00 0.00
5:53 am 05:53 Mostly Cloudy with Haze 59 15 45 7.2 60 60 WNW 5 7 30.27 1025 1 1 0.00 0.00
6:53 am 06:53 Mostly Cloudy with Haze 59 15 44 6.7 58 58 N 5 7 30.27 1025 1 1 0.00 0.00
7:53 am 07:53 Mostly Cloudy with Haze 54 12.2 45 7.2 72 72 Calm 30.27 1025 0 0 0.00 0.00
8:35 am 08:35 Cloudy with Haze 54 12.2 44 6.7 69 69 Calm 30.29 1026 1 2 0.00 0.00
8:53 am 08:53 Cloudy with Haze 54 12.2 45 7.2 72 72 Calm 30.29 1026 1 2 0.00 0.00
9:03 am 09:03 Cloudy with Haze 56 13.3 45 7.2 67 67 W 3 6 30.30 1026 1 1 0.00 0.00
9:53 am 09:53 Cloudy with Haze 53 11.7 45 7.2 74 74 Calm 30.31 1027 1 1 0.00 0.00
10:17 am 10:17 Cloudy with Haze 60 15.6 45 7.2 58 58 W 3 6 30.32 1027 1 2 0.00 0.00
10:53 am 10:53 Cloudy with Haze 52 11.1 46 7.8 80 80 Calm 30.31 1026 2 3 0.00 0.00
11:04 am 11:04 Cloudy with Haze 51 10.6 46 7.8 83 83 Calm 30.31 1027 2 3 0.00 0.00
11:53 am 11:53 Cloudy with Haze 67 19.4 45 7.2 45 45 SE 5 7 30.28 1025 3 4 0.00 0.00
12:50 pm 12:50 Cloudy with Mist and Fog 48 9 46 8 94 94 SE 6 9 30.26 1025 3 5 0.00 0.00
12:53 pm 12:53 Cloudy with Mist and Fog 49 9.4 46 7.8 90 90 SE 7 11 30.25 1024 3 5 0.00 0.00
1:38 pm 13:38 Cloudy with Mist and Fog 49 9.4 47 8.3 93 93 S 6 9 30.25 1025 3 5 0.00 0.00
1:50 pm 13:50 Cloudy with Mist and Fog 48 9 46 8 94 94 SSW 6 9 30.27 1025 3 5 0.00 0.00
1:53 pm 13:53 Cloudy with Mist and Fog 49 9.4 46 7.8 90 90 SSW 5 7 30.25 1025 3 5 0.00 0.00
2:04 pm 14:04 Cloudy with Mist and Fog 49 9.4 46 7.8 90 90 S 5 7 30.26 1025 4 6 0.00 0.00
2:11 pm 14:11 Cloudy with Mist and Fog 49 9.4 46 7.8 90 90 SW 3 6 30.26 1025 4 6 0.00 0.00
2:53 pm 14:53 Cloudy with Haze 50 10 45 7.2 83 83 Calm 30.25 1024 4 6 0.00 0.00
3:53 pm 15:53 Mostly Cloudy with Haze 51 10.6 44 6.7 77 77 ENE 6 9 30.24 1024 6 10 0.00 0.00
4:06 pm 16:06 Hazy 50 10 44 6.7 80 80 E 8 13 30.24 1024 5 8 0.00 0.00
4:53 pm 16:53 Hazy 48 8.9 43 6.1 83 83 Calm 30.24 1024 4 6 0.00 0.00
5:53 pm 17:53 Clear with Mist and Fog 42 5.6 40 4.4 92 92 Calm 30.25 1025 3 4 0.00 0.00
6:02 pm 18:02 Clear with Mist and Fog 41 5 40 4.4 96 96 Calm 30.26 1025 3 5 0.00 0.00
6:25 pm 18:25 Clear with Mist and Fog 39 3.9 39 3.9 100 100 Calm 30.26 1025 2 3 0.00 0.00
6:36 pm 18:36 Clear with Mist and Fog 42 5.6 39 3.9 89 89 Calm 30.27 1025 3 5 0.00 0.00
6:53 pm 18:53 Clear with Mist and Fog 41 5 40 4.4 96 96 Calm 30.26 1025 3 5 0.00 0.00
7:18 pm 19:18 Clear with Mist and Fog 41 5 39 3.9 93 93 undefined N/A 30.28 1025 3 4 0.00 0.00
7:41 pm 19:41 Clear with Mist and Fog 39 3.9 38 3.3 96 96 Calm 30.28 1025 1 1 0.00 0.00
7:53 pm 19:53 Clear with Mist and Fog 41 5 39 3.9 93 93 NE 6 9 30.27 1025 3 4 0.00 0.00
8:10 pm 20:10 Clear with Mist and Fog 39 3.9 39 3.9 100 100 Calm 30.29 1026 1 2 0.00 0.00
8:53 pm 20:53 Clear with Mist and Fog 40 4.4 39 3.9 97 97 NE 3 6 30.29 1026 2 3 0.00 0.00
9:19 pm 21:19 Clear with Fog 39 3.9 38 3.3 96 96 Calm 30.31 1026 0 0 0.00 0.00
9:36 pm 21:36 Mostly Cloudy with Fog 39 3.9 37 2.8 93 93 Calm 30.31 1026 0 0 0.00 0.00
9:44 pm 21:44 Mostly Cloudy with Fog 38 3.3 37 2.8 97 97 E 5 7 30.31 1026 0 0 0.00 0.00
9:53 pm 21:53 Mostly Cloudy with Fog 38 3.3 37 2.8 97 97 Calm 30.30 1026 0 0 0.00 0.00
10:36 pm 22:36 Hazy 48 8.9 37 2.8 66 66 E 3 6 30.31 1026 0 0 0.00 0.00
10:43 pm 22:43 Mostly Cloudy with Haze 46 7.8 37 2.8 71 71 E 3 6 30.31 1026 0 0 0.00 0.00
10:53 pm 22:53 Mostly Cloudy with Haze 47 8.3 37 2.8 69 69 ESE 6 9 30.29 1026 1 1 0.00 0.00
11:01 pm 23:01 Hazy 48 8.9 37 2.8 66 66 ESE 7 11 30.30 1026 1 2 0.00 0.00
11:53 pm 23:53 Clear with Mist and Fog 42 5.6 38 3.3 85 85 SSE 3 6 30.29 1026 1 2 0.00 0.00

Powered by Vaisala Xweather